This is the latest recevied weather packets stored in our database for station/object DC4AT. If no packets are shown the sender has not sent any weather packets the latest 1 day(s).
| Time | Temp. | Humidity | Pressure | Rain* | Wind** | Luminosity | Snow |
|---|---|---|---|---|---|---|---|
| 1778106809 | 8.89° C | 81% | 1008.4 hPa | 0 mm | - | 0 W/m² | - |
| 1778106209 | 8.89° C | 81% | 1008.3 hPa | 0 mm | - | 0 W/m² | - |
| 1778105609 | 8.89° C | 81% | 1008.3 hPa | 0 mm | - | 0 W/m² | - |
| 1778105009 | 8.89° C | 81% | 1008.4 hPa | 0 mm | - | 0 W/m² | - |
| 1778104409 | 8.89° C | 81% | 1008.3 hPa | 0 mm | - | 0 W/m² | - |
| 1778103809 | 8.89° C | 81% | 1008.3 hPa | 0 mm | - | 0 W/m² | - |
| 1778103209 | 8.89° C | 81% | 1008.2 hPa | 0 mm | - | 0 W/m² | - |
| 1778102609 | 8.89° C | 81% | 1008.2 hPa | 0 mm | - | 0 W/m² | - |
| 1778081010 | 11.67° C | 82% | 1006 hPa | 0 mm | - | 63 W/m² | - |
| 1778080410 | 11.67° C | 82% | 1006 hPa | 0 mm | - | 83 W/m² | - |
| 1778079810 | 11.67° C | 81% | 1006 hPa | 0 mm | - | 120 W/m² | - |
| 1778078610 | 11.67° C | 81% | 1005.8 hPa | 0 mm | - | 111 W/m² | - |
| 1778078010 | 11.67° C | 81% | 1005.8 hPa | 0.25 mm | - | 151 W/m² | - |
| 1778077410 | 11.67° C | 81% | 1005.8 hPa | 0.25 mm | - | 105 W/m² | - |
| 1778076810 | 11.67° C | 81% | 1005.7 hPa | 0.25 mm | - | 153 W/m² | - |
| 1778075010 | 11.67° C | 81% | 1005.9 hPa | 0.25 mm | - | 100 W/m² | - |
| 1778074410 | 11.67° C | 81% | 1005.8 hPa | 0 mm | - | 100 W/m² | - |
| 1778073210 | 11.67° C | 80% | 1005.7 hPa | 0.25 mm | - | 190 W/m² | - |
| 1778072610 | 11.67° C | 81% | 1005.7 hPa | 0.25 mm | - | 135 W/m² | - |
| 1778072010 | 11.11° C | 81% | 1005.7 hPa | 0.25 mm | - | 155 W/m² | - |
| 1778071410 | 11.11° C | 81% | 1005.7 hPa | 0.25 mm | - | 109 W/m² | - |
| 1778070810 | 11.67° C | 81% | 1005.7 hPa | 0.25 mm | - | 93 W/m² | - |
| 1778067210 | 11.11° C | 81% | 1005.3 hPa | 0 mm | - | 46 W/m² | - |
| 1778066610 | 11.11° C | 81% | 1005.3 hPa | 0 mm | - | 62 W/m² | - |
| 1778066010 | 11.11° C | 81% | 1005.3 hPa | 0 mm | - | 97 W/m² | - |
* Rain latest hour (hover to see other rain measurements)
** Current wind speed in m/s (hover to see current wind gust speed)